User: anonymous   Login
Location: Asheville, NC
(35.6000°N, 82.5500°W)
Time: 03:25:42
(UTC-04:00)
Language:

FO-29 - Orbit

View from above orbital plane
View from above orbital plane
View from above satellite
View from above satellite

Ground track
Ground track

The orbit data is extracted from the following two-line orbital elements,

1 24278U 96046B   18168.60009806 -.00000054  00000-0 -22390-4 0  9992
2 24278  98.5175   7.3006 0351366 109.8054 254.1322 13.53084148 78299
Epoch (UTC): 17 June 2018 14:24:08
Eccentricity: 0.0351366
inclination: 98.5175°
perigee height: 799 km
apogee height: 1322 km
right ascension of ascending node: 7.3006°
argument of perigee: 109.8054°
revolutions per day: 13.53084148
mean anomaly at epoch: 254.1322°
orbit number at epoch: 7829

The dashed part of the orbit path shows where the satellite is in the earth's shadow,  

DLR